sat.trackr.live / text

‹ back to catalog

STARLINK-32389

NORAD 61549 · 2024-184T

PAYLOAD ACTIVE UNKNOWN

§ Identity

Operator
Country
US
Launch date
2024-10-15
Launch site
AFWTR
Launch vehicle
Mass (kg)
RCS (m²)

Purposes: comms

External: N2YO · Heavens-Above · Gunter

§ Orbital elements

Epoch: 2026-09-21T06:18:30.108672Z

Period
93.85 min
Inclination
53.1642°
Eccentricity
0.0001643
Mean motion
15.34401887 rev/d
Perigee alt
461.6 km
Apogee alt
463.8 km
Semi-major
6,840.8 km
B*
4.0396e-5
RAAN
183.8598°
Arg perigee
88.4306°
Mean anomaly
271.6885°
Rev number
10,847

§ Raw data

STARLINK-323891 61549U 24184T   26264.26284848  .00000989  00000+0  40396-4 0  99972 61549  53.1642 183.8598 0001643  88.4306 271.6885 15.34401887108471

JSON: /api/v1/satellites/61549 · /tle

For live sub-satellite position, see the globe view (requires WebGL).

§ Visibility from observer

Set your observer location to see the next 7 days of passes ≥ 10°. The values pass through the URL so the page stays shareable.

No JS? Fill the form by hand. The geolocation button needs JavaScript.